CW2434 Weather Reports


Display with metric or nautical units.
time (UTC)temp
F
wind
direction
speed
MPH
gust
MPH
rain 1hr
in
rain 24hr
in
rain mn
in
humidity
%
barometer
mb
20260502193050 55 345 3.0 8.0 0.00 0.27 0.27 56 1010.2
20260502191559 54 0 0.0 3.0 0.00 0.27 0.27 57 1010.4
20260502190051 55 283 4.0 8.0 0.00 0.27 0.27 56 1010.7
20260502184550 54 304 2.0 8.0 0.00 0.27 0.27 61 1010.9
20260502183051 52 5 1.0 6.0 0.00 0.27 0.27 63 1011.0
20260502181551 52 338 2.0 8.0 0.00 0.27 0.27 66 1011.1
20260502170107 47 355 0.0 4.0 0.00 0.27 0.27 82 1011.8
20260502163056 45 21 2.0 4.0 0.01 0.27 0.27 89 1011.9
20260502161546 45 350 0.0 4.0 0.01 0.27 0.27 88 1012.0
20260502151606 44 9 3.0 9.0 0.09 0.26 0.26 90 1012.2
20260502123047 46 0 2.0 4.0 0.00 0.13 0.13 91 1011.6
20260502121549 46 0 1.0 4.0 0.00 0.13 0.13 91 1011.7
20260502114544 46 0 1.0 3.0 0.00 0.13 0.13 92 1011.6
20260502113052 46 0 0.0 2.0 0.00 0.13 0.13 92 1011.6
20260502111550 45 0 0.0 0.0 0.01 0.13 0.13 94 1011.6
20260502110058 44 0 0.0 0.0 0.01 0.13 0.13 93 1011.3
20260502104547 44 0 0.0 0.0 0.01 0.13 0.13 92 1011.2
20260502103053 45 0 0.0 0.0 0.01 0.13 0.13 93 1011.2
20260502101556 45 0 0.0 4.0 0.00 0.12 0.12 93 1011.1
20260502090111 45 0 0.0 1.0 0.05 0.10 0.10 92 1011.3
20260502070114 45 0 0.0 2.0 0.04 0.05 0.05 90 1011.5
20260502064604 46 0 0.0 0.0 0.03 0.03 0.03 89 1011.8
20260502063106 45 0 0.0 4.0 0.01 0.01 0.01 88 1011.5
20260502061555 46 0 0.0 3.0 0.01 0.01 0.01 89 1011.4
20260502060051 46 0 0.0 0.0 0.01 0.01 0.01 87 1011.7
20260502054556 46 0 0.0 2.0 0.00 0.00 0.00 87 1012.0
20260502053053 47 82 0.0 2.0 0.00 0.00 0.00 86 1011.3
20260502051553 47 0 0.0 0.0 0.00 0.00 0.00 83 1011.7
20260502050054 47 0 0.0 2.0 0.00 0.00 0.00 82 1011.4
20260502044555 47 0 0.0 0.0 0.00 0.00 0.00 82 1011.5
20260502043052 48 0 0.0 2.0 0.00 0.00 0.00 79 1011.3
20260502041558 47 0 3.0 4.0 0.00 0.00 0.00 81 1011.5
20260502040050 48 0 0.0 3.0 0.00 0.00 0.00 79 1011.7
20260502034550 48 0 0.0 3.0 0.00 0.00 0.00 77 1011.3
20260502033048 48 278 0.0 2.0 0.00 0.00 0.00 72 1011.6
20260502031552 48 0 0.0 2.0 0.00 0.00 0.00 70 1011.6
20260502030057 49 0 0.0 2.0 0.00 0.00 0.00 68 1011.5
20260502024608 49 278 1.0 2.0 0.00 0.00 0.00 65 1011.4
20260502023108 50 278 0.0 2.0 0.00 0.00 0.00 65 1011.5
20260502021555 50 0 0.0 2.0 0.00 0.00 0.00 63 1011.3
20260502020052 51 278 1.0 3.0 0.00 0.00 0.00 62 1011.2
20260502014552 52 0 0.0 4.0 0.00 0.00 0.00 61 1011.3
20260502013056 52 278 0.0 0.0 0.00 0.00 0.00 57 1011.6
20260502011550 53 0 0.0 0.0 0.00 0.00 0.00 54 1011.6
20260502010045 54 0 0.0 4.0 0.00 0.00 0.00 51 1011.3
20260502004546 55 278 2.0 7.0 0.00 0.00 0.00 50 1011.2
20260502003048 56 292 2.0 8.0 0.00 0.00 0.00 47 1010.9
20260502001603 56 283 5.0 10.0 0.00 0.00 0.00 46 1010.8
20260501234549 57 319 2.0 12.0 0.00 0.00 0.00 44 1010.5
20260501233047 58 256 4.0 9.0 0.00 0.00 0.00 43 1010.2
20260501231548 58 283 2.0 7.0 0.00 0.00 0.00 42 1009.8
20260501230053 58 277 3.0 9.0 0.00 0.00 0.00 40 1009.6
20260501224606 59 255 5.0 9.0 0.00 0.01 0.00 40 1009.5
20260501223049 60 263 5.0 13.0 0.00 0.01 0.00 40 1009.4
20260501221548 61 255 6.0 12.0 0.00 0.01 0.00 37 1009.5
20260501220053 60 248 2.0 11.0 0.00 0.01 0.00 37 1009.5
20260501214551 60 248 5.0 13.0 0.00 0.01 0.00 36 1009.4
20260501213052 61 276 4.0 12.0 0.00 0.01 0.00 36 1009.2
20260501211551 62 244 6.0 13.0 0.00 0.01 0.00 35 1009.3
20260501210048 63 249 3.0 10.0 0.00 0.01 0.00 33 1009.3
20260501204556 62 244 8.0 15.0 0.00 0.03 0.00 35 1009.4
20260501203051 61 267 5.0 14.0 0.00 0.03 0.00 36 1009.5
20260501201550 62 234 1.0 7.0 0.00 0.03 0.00 36 1009.3
20260501200056 60 189 5.0 9.0 0.00 0.03 0.00 37 1009.5
20260501194556 60 202 2.0 10.0 0.00 0.06 0.00 33 1009.5